Weather History for Smyrna, TN

Change the Weather History Date:

Saturday, August 4, 2012

  Actual Average Record
Temperature  
Mean Temperature 84 °F -  
Max Temperature 93 °F 85 °F 106 °F (2010)
Min Temperature 77 °F 68 °F 61 °F (2014)
Cooling Degree Days 19    
Growing Degree Days 34 (Base 50)    
Moisture  
Dew Point 75 °F    
Average Humidity 80    
Maximum Humidity 94    
Minimum Humidity 57    
Precipitation  
Precipitation 0.02 in - - ()
Sea Level Pressure  
Sea Level Pressure 30.01 in    
Wind  
Wind Speed 7 mph (SSW)    
Max Wind Speed 17 mph    
Max Gust Speed 23 mph    
Visibility 10 miles    
Events Rain    
Averages and records for this station are not official NWS values.
T = Trace of Precipitation, MM = Missing Value Source: NWS Daily Summary

Daily Weather History Graph

Daily Weather History Graph

Search for Another Location

Airport:

Trip Planner

Search our weather history database for the weather conditions in past years. The results will help you decide how hot, cold, wet, or windy it might be!

Date:

Astronomy

Aug. 04, 2012 Rise Set
Actual Time 5:56 AM CDT 7:47 PM CDT
Civil Twilight 5:28 AM CDT 8:15 PM CDT
Nautical Twilight 4:54 AM CDT 8:49 PM CDT
Astronomical Twilight 4:18 AM CDT 9:25 PM CDT
Moon 9:04 PM CDT (8/4) 8:35 AM CDT (8/4)
Length of Visible Light 14h 47m
Length of Day
13h 51m
Waning Gibbous, 92% of the Moon is Illuminated
Aug 4
Waning Gibbous
Aug 9
Last Quarter
Aug 17
New
Aug 24
First Quarter
Aug 31
Full

Hourly Weather History & Observations

Time (CDT) Temp. Heat Index Dew Point Humidity Pressure Visibility Wind Dir Wind Speed Gust Speed Precip Events Conditions
12:56 AM 79.9 °F - 77.0 °F 91% 29.92 in 10.0 mi SSW 3.5 mph - N/A   Partly Cloudy
1:56 AM 79.0 °F - 77.0 °F 94% 29.93 in 9.0 mi South 3.5 mph - N/A   Mostly Cloudy
3:56 AM 79.0 °F - 77.0 °F 94% 29.96 in 9.0 mi South 5.8 mph - N/A   Scattered Clouds
4:56 AM 79.0 °F - 75.9 °F 90% 29.97 in 10.0 mi South 6.9 mph - N/A   Mostly Cloudy
5:56 AM 77.9 °F - 74.8 °F 90% 29.98 in 10.0 mi SSW 4.6 mph - N/A   Partly Cloudy
6:56 AM 77.9 °F - 73.9 °F 88% 30.00 in 10.0 mi South 5.8 mph - N/A   Scattered Clouds
7:56 AM 77.9 °F - 73.9 °F 88% 30.01 in 10.0 mi South 6.9 mph - N/A   Scattered Clouds
8:56 AM 81.9 °F 88.2 °F 74.8 °F 79% 30.01 in 10.0 mi South 8.1 mph - N/A   Partly Cloudy
9:56 AM 86.0 °F 96.0 °F 75.9 °F 72% 30.01 in 10.0 mi SSW 8.1 mph - N/A   Clear
10:56 AM 90.0 °F 102.5 °F 77.0 °F 65% 30.01 in 10.0 mi SW 8.1 mph - N/A   Scattered Clouds
11:56 AM 91.9 °F 103.9 °F 75.9 °F 59% 30.02 in 10.0 mi SW 10.4 mph 19.6 mph N/A   Scattered Clouds
12:56 PM 91.9 °F 102.6 °F 74.8 °F 57% 30.00 in 10.0 mi SW 11.5 mph 17.3 mph N/A   Mostly Cloudy
1:56 PM 91.9 °F 102.6 °F 74.8 °F 57% 29.99 in 10.0 mi SW 9.2 mph 17.3 mph N/A   Scattered Clouds
2:56 PM 81.0 °F 86.7 °F 74.8 °F 82% 30.01 in 5.0 mi WNW 17.3 mph 23.0 mph 0.02 in Rain Heavy Rain
3:56 PM 79.9 °F - 75.9 °F 88% 30.02 in 10.0 mi East 10.4 mph - 0.00 in   Mostly Cloudy
4:56 PM 77.9 °F - 74.8 °F 90% 30.01 in 10.0 mi SSE 10.4 mph - N/A   Scattered Clouds
5:56 PM 81.9 °F 87.7 °F 73.9 °F 77% 30.03 in 10.0 mi South 4.6 mph - N/A   Clear
6:56 PM 81.0 °F 85.6 °F 72.9 °F 76% 30.03 in 10.0 mi SSW 4.6 mph - N/A   Clear
7:56 PM 79.9 °F - 72.0 °F 77% 30.03 in 10.0 mi South 3.5 mph - N/A   Clear
8:56 PM 79.9 °F - 72.0 °F 77% 30.04 in 10.0 mi South 8.1 mph - N/A   Clear
9:56 PM 79.0 °F - 72.0 °F 79% 30.04 in 10.0 mi South 8.1 mph - N/A   Clear
10:56 PM 77.9 °F - 72.0 °F 82% 30.05 in 10.0 mi South 8.1 mph - N/A   Clear
11:56 PM 79.0 °F - 72.9 °F 81% 30.07 in 10.0 mi South 8.1 mph - N/A   Clear